Location: LDNL
(36.4545°S, 141.6685°E)
Time: 12:00:01
(UTC+10:00)

Vanguard 3 - Pass Details

Date: 01 February 2022
Orbit: 508 x 3258 km, 33.3° (Epoch: 25 May)

Event Time Altitude Azimuth Distance (km) Brightness Sun altitude
Rises 02:06:50 0° 274° (W) 3,972 - -36.1°
Reaches altitude 10° 02:09:03 10° 276° (W) 3,273 - -36.0°
Exits shadow 02:17:10 76° 335° (NNW) 1,894 8.6 -35.8°
Maximum altitude 02:17:41 77° 360° (N) 1,922 8.6 -35.8°
Drops below altitude 10° 02:33:20 10° 82° (E) 5,603 11.4 -35.2°
Sets 02:38:25 0° 82° (E) 6,904 12.0 -34.9°
